Theta_e
346 346 347 347 348 348 347 344 346 345 349 345 341 340 341 344 346 346 346 345 342 339 335 320 313 318 323 323 317 317 319 322 326 332 335 333 329 325 322 316 315 318 322
346 346 347 347 348 348 347 345 344 345 348 348 345 345 345 346 346 347 347 347 342 340 333 320 315 313 318 317 316 318 319 321 323 329 334 330 325 322 319 318 318 316 319
346 346 347 347 348 348 348 347 346 346 345 348 347 346 347 347 347 348 348 348 343 339 331 319 313 310 315 315 319 320 319 319 320 327 331 329 324 322 318 318 319 319 318
345 346 347 347 347 348 348 349 350 346 345 345 348 348 349 349 349 349 348 348 343 338 327 316 310 310 313 316 318 319 319 317 322 328 327 325 323 320 318 319 319 316 314
343 346 345 347 348 348 348 349 350 350 347 346 346 348 350 350 349 349 349 348 343 336 321 315 310 312 314 316 317 318 319 317 317 323 324 324 322 320 319 319 314 307 315
347 346 343 344 349 349 348 349 350 351 351 349 348 348 350 351 350 349 349 348 343 335 317 314 311 313 313 315 318 316 318 314 317 318 322 322 320 320 317 314 308 310 316
350 350 349 347 347 348 348 350 351 351 351 352 351 349 351 351 350 349 349 348 342 330 315 314 311 313 313 313 313 314 314 313 319 319 320 320 318 315 310 310 313 315 315
357 353 353 352 351 350 342 338 337 346 352 352 352 351 352 351 349 349 348 347 342 325 313 311 313 313 312 311 311 312 310 311 318 317 314 314 313 313 310 312 314 313 313
351 357 358 355 354 354 352 339 341 346 349 353 351 351 352 350 350 348 347 340 340 321 311 311 314 310 308 309 309 310 309 312 315 314 313 314 316 316 315 316 316 316 316
350 353 357 357 356 356 356 355 354 350 351 353 354 353 351 349 348 348 344 341 335 315 311 311 313 313 310 312 317 313 312 314 316 316 315 315 315 316 316 316 316 317 317
347 354 358 359 357 358 358 358 358 354 350 350 348 344 351 350 349 346 345 340 334 315 312 311 312 312 314 316 317 314 314 316 317 317 318 317 316 316 316 316 317 317 317
331 339 353 358 360 356 358 356 353 353 349 349 340 334 333 347 341 344 342 338 327 317 316 312 312 312 316 316 314 314 314 316 318 317 317 317 317 316 316 315 317 317 316
331 331 331 350 358 357 357 355 345 339 337 339 337 334 337 345 342 336 331 331 333 320 319 314 312 313 315 314 313 313 314 312 316 315 312 313 314 315 313 314 316 316 317
329 331 331 330 347 358 356 345 342 337 338 340 335 340 343 340 337 337 336 334 332 321 318 315 315 314 316 315 315 313 312 310 310 312 313 315 316 317 317 316 317 318 318
330 334 334 336 333 344 350 345 346 345 342 340 342 345 338 337 335 334 336 333 330 326 319 316 318 318 319 317 317 316 312 311 312 314 315 317 318 320 320 320 320 319 319
333 330 332 336 339 344 346 347 348 348 347 347 347 343 338 336 336 335 337 336 325 327 321 318 318 320 321 322 322 320 314 313 314 316 318 318 319 321 321 321 321 321 320
334 327 328 329 336 340 344 347 346 347 344 344 343 342 340 338 336 336 339 334 329 322 321 320 318 318 318 320 322 322 320 314 316 316 316 319 321 320 320 320 320 321 321
331 329 327 327 335 339 342 343 345 346 346 344 343 336 335 340 338 336 335 330 324 321 322 321 320 318 320 322 322 320 321 317 318 317 317 321 321 319 318 318 320 320 317
330 327 324 323 328 337 341 342 343 342 344 344 343 342 336 335 334 332 329 326 323 324 323 323 322 318 317 319 321 320 320 319 319 315 316 320 320 320 321 321 320 320 318
327 324 324 323 324 334 339 339 340 343 342 341 340 342 337 335 333 328 323 321 321 321 323 323 320 316 313 313 313 320 319 315 317 315 319 320 320 320 320 318 319 320 318
328 326 323 322 320 336 338 336 333 338 342 342 341 340 338 336 334 325 320 319 318 320 320 319 315 311 311 311 312 318 316 316 321 322 321 318 318 319 319 320 321 319 317
328 327 323 321 323 334 340 337 334 333 336 340 340 339 337 334 331 326 320 319 318 320 320 316 314 313 313 314 318 317 315 320 320 319 316 316 318 320 321 321 320 317 315
328 327 325 323 327 338 341 338 333 334 336 339 339 338 335 332 329 324 321 321 320 319 322 322 321 321 321 319 319 317 317 320 319 318 316 316 320 321 321 319 318 317 316
327 327 326 329 337 338 337 334 334 334 336 336 336 336 334 332 329 326 324 323 322 321 321 321 321 321 321 320 318 317 316 318 317 316 316 320 321 320 316 313 312 313 312
329 329 329 330 338 336 334 332 335 335 329 331 336 335 334 331 328 326 324 324 323 320 320 320 319 320 319 317 318 317 317 318 318 320 321 320 318 315 313 311 312 312 311
327 326 327 328 332 336 334 330 330 329 330 332 331 334 334 328 322 321 321 321 320 319 320 320 321 320 316 316 318 321 319 320 320 315 314 313 314 313 312 311 310 310 310
Wind_Speed
33 32 32 29 27 27 27 25 22 21 21 19 17 18 20 18 16 13 13 13 13 13 12 11 9 11 11 10 8 8 9 10 11 14 16 13 10 7 3 6 7 5 1
31 33 33 31 30 30 30 29 27 25 24 21 20 19 19 19 17 16 14 14 15 14 13 12 11 12 11 8 7 7 7 8 9 12 16 14 11 5 2 2 4 4 3
31 36 35 36 34 33 33 32 31 30 28 27 26 25 23 22 20 18 17 16 16 16 14 13 11 12 12 10 9 8 7 7 7 10 16 17 12 8 5 3 4 6 3
31 33 35 37 38 37 34 35 34 34 34 33 31 29 27 25 24 22 21 18 18 17 15 13 11 12 12 12 11 9 7 7 9 13 14 14 12 10 7 6 8 10 7
34 38 32 36 37 40 42 40 39 38 39 37 35 33 30 28 26 25 22 19 18 17 15 14 13 13 13 13 12 10 10 9 11 13 15 15 13 10 9 10 11 7 8
32 41 40 25 36 42 44 44 42 44 45 42 41 38 34 31 29 27 24 20 19 18 16 15 15 15 14 13 12 11 11 10 12 13 15 13 11 9 9 10 4 1 7
30 36 39 49 51 50 41 43 43 46 47 48 45 43 40 35 32 28 25 21 19 17 16 17 17 15 14 14 13 12 11 10 9 9 10 10 9 7 3 5 9 10 7
16 21 32 41 50 51 45 41 47 52 52 53 50 47 42 39 32 32 28 23 21 18 17 18 16 15 15 14 13 12 12 12 11 10 9 10 10 9 9 9 8 6 5
22 19 29 39 43 45 50 47 49 51 57 59 56 52 47 42 38 32 29 22 26 22 19 20 18 16 15 15 13 12 13 15 15 12 13 13 11 10 8 6 4 2 2
25 23 14 26 34 40 44 51 54 67 61 55 55 52 46 43 40 34 31 30 25 23 21 22 20 16 17 16 14 13 16 17 16 14 13 12 11 10 7 4 3 4 7
25 26 16 20 26 29 38 42 44 41 36 32 22 28 46 46 43 40 34 30 24 23 22 23 22 20 20 19 16 16 16 16 15 13 12 13 13 12 10 8 6 6 5
25 25 21 15 24 22 27 31 27 23 14 19 19 36 54 43 42 40 31 25 20 19 20 19 19 21 21 21 18 15 17 17 16 15 13 13 13 14 13 12 10 9 10
23 23 24 17 14 18 21 19 15 21 17 24 19 16 48 35 32 25 27 21 15 18 18 17 20 23 23 22 18 17 18 20 19 16 13 10 8 8 10 13 13 12 14
21 22 24 20 13 14 15 18 19 17 17 16 9 13 36 36 31 27 26 25 27 28 27 24 24 27 26 24 20 19 19 19 18 16 13 11 11 10 11 14 16 16 18
18 20 21 23 17 13 16 19 24 26 27 23 28 23 31 40 42 34 37 38 41 37 29 30 30 32 30 28 25 22 20 20 20 17 15 12 12 11 12 14 17 19 21
15 18 19 20 19 16 15 14 10 13 20 21 21 28 33 35 29 45 47 40 38 30 35 36 37 36 34 32 29 26 24 23 21 18 16 14 14 15 15 17 19 20 21
18 17 19 19 19 16 14 16 14 19 17 22 30 33 31 29 33 39 40 32 30 30 38 37 38 39 34 31 30 30 28 26 22 20 18 17 16 15 16 17 18 20 21
18 16 19 21 19 16 15 18 22 21 18 19 16 20 23 21 23 28 30 31 31 35 37 37 38 36 31 26 26 26 29 26 22 21 21 20 18 19 20 20 19 19 22
14 13 17 20 20 20 18 18 17 21 21 15 17 19 19 19 21 23 24 31 34 37 38 38 35 35 35 30 24 23 25 25 22 22 22 21 21 22 21 20 19 21 22
15 16 19 23 22 20 20 18 18 16 21 21 21 21 24 27 29 31 33 34 34 36 37 36 30 32 34 32 31 28 22 23 23 23 22 22 19 19 20 21 22 20 19
21 20 21 24 25 23 22 21 17 17 18 17 20 22 25 29 32 34 35 35 34 32 30 28 31 30 28 26 24 24 23 25 23 23 24 23 25 25 25 22 20 21 20
26 28 26 27 25 23 27 25 23 23 21 21 19 22 24 29 32 32 32 29 28 27 26 25 27 28 26 23 24 20 18 25 20 22 24 23 24 22 20 21 20 18 20
26 27 26 28 28 25 27 28 27 26 25 25 24 23 24 28 30 30 26 25 24 26 27 28 25 23 23 26 23 19 28 24 22 21 23 23 20 20 19 19 19 20 20
27 27 27 29 28 24 26 28 22 22 19 20 28 23 23 24 24 23 23 22 23 24 24 23 22 23 24 22 27 29 28 24 22 23 22 21 19 16 16 17 19 17 15
26 27 29 29 27 28 25 22 23 23 26 28 29 26 23 19 20 22 22 21 24 25 22 21 22 23 18 19 25 26 24 21 20 19 16 16 15 16 17 17 17 17 17
30 30 30 30 27 26 23 24 26 24 25 29 34 32 23 23 19 19 19 19 19 22 21 23 20 17 19 21 21 18 17 19 16 12 12 15 17 18 17 14 14 15 17
Wind_Direction
230 230 231 231 231 230 230 231 228 224 222 220 223 217 216 223 234 246 256 268 267 269 276 278 247 227 225 230 235 226 223 224 228 225 218 212 219 225 308 338 5 14 301
234 236 235 235 235 234 234 234 232 228 225 227 223 220 221 225 234 245 253 265 267 267 267 267 255 235 225 222 213 210 213 214 215 218 210 215 219 217 282 338 10 3 304
239 241 243 242 240 240 239 237 235 233 229 228 228 228 229 232 237 246 255 260 262 261 265 264 249 229 222 218 213 215 224 217 199 203 203 203 208 228 251 269 312 317 297
241 247 246 246 248 248 242 240 239 236 234 232 231 232 233 235 238 242 248 256 258 258 260 254 238 225 217 217 222 219 210 198 189 191 202 209 220 230 245 267 290 296 262
241 245 264 262 254 254 252 250 243 238 236 236 235 232 234 234 237 239 245 252 255 254 255 242 229 220 219 222 224 223 210 200 195 202 209 212 223 231 252 278 289 281 214
232 239 235 257 257 256 252 252 251 248 242 236 235 234 234 231 232 234 238 246 248 251 248 237 224 219 219 218 219 216 218 216 207 198 206 213 213 230 258 278 287 152 186
240 246 249 249 251 253 253 250 252 250 248 241 235 234 232 231 231 232 235 238 243 246 244 234 223 221 220 220 215 213 210 202 182 193 197 200 212 236 223 121 111 104 107
272 274 260 249 248 249 234 243 260 250 245 243 237 233 231 231 223 228 223 229 231 232 234 228 225 227 225 220 216 215 209 204 197 199 201 198 169 151 125 123 128 123 113
321 301 259 250 250 253 234 231 249 254 247 241 235 230 228 228 223 221 218 219 225 217 217 218 219 217 213 207 204 209 200 189 179 168 166 169 165 158 152 146 145 168 228
325 321 311 252 250 252 253 250 254 252 251 248 239 234 230 229 225 216 223 215 216 210 204 208 211 209 210 205 212 203 192 189 193 195 192 191 191 193 197 213 260 281 281
332 324 321 291 272 268 261 256 251 238 228 227 235 268 248 236 224 210 213 214 216 209 207 209 207 204 209 212 217 216 211 211 212 213 215 213 215 222 229 241 267 292 290
343 341 320 296 283 278 252 252 249 247 259 235 262 246 263 234 225 206 200 206 214 215 211 213 213 204 206 211 212 208 206 208 210 213 219 225 230 235 239 244 252 272 284
333 329 336 315 300 283 266 241 243 254 232 224 271 277 261 255 221 240 201 219 223 211 220 216 210 206 207 208 204 203 209 209 210 215 215 208 210 220 229 236 252 267 270
325 325 324 316 308 291 254 248 265 258 248 253 250 281 252 231 239 184 208 233 228 209 211 214 211 203 204 204 204 206 212 215 215 210 207 210 228 239 244 252 259 267 275
312 320 322 320 307 305 284 272 257 268 263 261 249 234 232 230 225 220 208 223 208 211 203 206 206 208 206 207 209 212 216 215 211 209 216 226 239 251 258 257 262 267 272
294 308 313 317 313 302 304 295 271 265 256 255 251 240 240 239 235 220 220 220 211 214 204 207 208 212 212 212 213 214 217 218 217 221 226 238 254 262 269 265 264 267 277
280 300 305 310 313 295 286 287 268 257 266 250 246 249 252 246 238 225 221 217 222 213 212 213 217 219 221 225 222 221 221 220 222 233 242 252 257 266 272 274 275 272 276
272 289 300 307 300 295 279 279 275 266 266 252 253 237 237 242 240 210 210 215 213 210 216 218 223 223 219 222 222 225 218 222 229 236 244 253 264 274 272 278 275 269 279
255 267 287 298 294 288 273 268 268 268 258 269 248 249 229 217 206 202 206 211 210 212 218 222 227 226 223 223 221 221 221 227 236 243 248 254 266 276 276 275 272 276 274
258 272 283 293 291 276 269 273 260 264 266 261 251 239 226 208 202 202 202 206 213 218 220 224 228 229 226 226 224 225 234 237 226 246 249 256 266 280 262 280 278 274 268
279 283 285 291 289 272 257 258 267 259 252 250 240 235 220 217 210 209 209 210 215 216 217 220 226 224 221 220 219 223 214 210 241 251 256 262 265 275 272 270 268 266 263
271 281 284 289 285 269 260 253 259 265 253 245 229 217 220 217 213 216 213 217 219 213 208 215 220 221 220 219 209 205 222 235 248 260 265 268 271 268 265 266 262 264 275
271 275 280 284 281 264 254 261 265 256 245 240 225 222 216 205 210 212 213 213 214 211 212 218 225 234 224 208 212 255 221 245 250 260 260 265 269 260 262 261 265 270 272
269 274 276 273 270 261 259 265 257 253 249 268 231 209 199 206 208 206 206 208 210 213 218 219 213 212 216 225 249 225 232 255 257 258 258 256 264 258 250 263 268 265 264
268 269 271 273 264 259 257 261 253 237 269 255 230 204 197 196 196 198 197 207 210 205 208 210 211 212 224 230 218 230 251 254 251 257 248 249 248 245 261 272 256 258 262
267 266 266 267 261 257 246 258 265 264 249 239 230 212 199 188 186 191 196 198 204 212 202 202 212 227 220 226 236 251 250 243 229 232 250 256 255 253 260 259 257 262 262